Flag for U.S.A. Weather past 2 weeks in Birmingham, Alabama, U.S.A.

Now
85 °F

Partly sunny.


Feels Like: 86 °F
Forecast: 68 / 86 °F
Wind: 3 mph from East

Location: Birmingham International Airport

Current Time: Aug 1, 2014 at 6:37:11 PM

Latest Report: Aug 1, 2014 at 5:53 PM


Visibility: 10 mi

Pressure: 29.98 "Hg

Humidity: 48%

Dew point: 63 °F

Location of BirminghamLocation

Historic Weather in Birmingham — Graph

°F

Birmingham temperature yesterday

Maximum temperature yesterday: 83 °F (at 12:53 PM)
Minimum temperature yesterday: 68 °F (at 3:53 AM)
Average temperature yesterday: 75 °F

Past Weeks' High & Low Weather Summary

 TemperatureHumidityPressure
High96 °F (Jul 27, 3:53 PM)97% (Jul 20, 3:53 AM)30.14 "Hg (Jul 20, 3:53 AM)
Low58 °F (Jul 30, 5:53 AM)27% (Jul 30, 2:53 PM)29.93 "Hg (Jul 24, 3:53 PM)
Average78 °F68%30.02 "Hg
* Reported Jul 17 4:53 PM — Aug 1 4:53 PM, Birmingham, Weather by CustomWeather, © 2014

Note: Actual official high and low records may vary slightly from our data, if they occured in-between our weather recording intervals... More about our weather records

Advertising

Birmingham weather history for previous 24 hours

 ConditionsComfort  
Time TempWeatherWind HumidityBarometerVisibility
4:53 PM
Aug 1
86 °FPartly sunny.3 mph46%29.98 "Hg10 mi
3:53 PM85 °FBroken clouds.5 mph50%30.00 "Hg10 mi
2:53 PM85 °FScattered clouds.7 mph50%30.01 "Hg10 mi
1:53 PM85 °FScattered clouds.7 mph51%30.03 "Hg10 mi
12:53 PM83 °FPartly sunny.7 mph59%30.04 "Hg10 mi
11:53 AM81 °FPartly sunny.3 mph62%30.06 "Hg10 mi
10:53 AM78 °FOvercast.6 mph69%30.06 "Hg10 mi
9:53 AM76 °FPartly sunny.5 mph74%30.07 "Hg10 mi
8:53 AM72 °FBroken clouds.6 mph81%30.06 "Hg10 mi
7:53 AM70 °FPartly sunny.5 mph84%30.06 "Hg10 mi
6:53 AM69 °FPassing clouds.3 mph87%30.05 "Hg10 mi
5:53 AM69 °FPassing clouds.7 mph87%30.03 "Hg10 mi
4:53 AM69 °FPassing clouds.6 mph87%30.02 "Hg10 mi
3:53 AM70 °FPassing clouds.5 mph84%30.01 "Hg10 mi
2:53 AM70 °FPassing clouds.5 mph87%30.02 "Hg10 mi
1:53 AM71 °FPassing clouds.No wind84%30.03 "Hg10 mi
12:53 AM72 °FPassing clouds.No wind81%30.03 "Hg10 mi
11:53 PM
Jul 31
73 °FPassing clouds.6 mph79%30.04 "Hg10 mi
10:53 PM72 °FClear.3 mph76%30.04 "Hg10 mi
9:53 PM73 °FClear.No wind76%30.05 "Hg10 mi
8:53 PM75 °FClear.3 mph69%30.04 "Hg10 mi
7:53 PM76 °FPartly sunny.No wind64%30.03 "Hg10 mi
6:53 PM77 °FPartly sunny.3 mph60%30.04 "Hg10 mi
Weather by CustomWeather, © 2014

See weather overviewHow to use our weather pages